Location: Catacaguana
(10.4120°N, 66.7591°W)
Time: 06:18:40
(UTC+00:00)

Cosmos 407 Rocket - Pass Details

Date: 27 May 2022
Orbit: 743 x 786 km, 74.0° (Epoch: 26 June)

Event Time Altitude Azimuth Distance (km) Brightness Sun altitude
Rises 08:59:42 0° 328° (NNW) 3,230 6.7 -15.3°
Reaches altitude 10° 09:02:23 10° 316° (NW) 2,297 5.8 -14.7°
Maximum altitude 09:06:44 27° 260° (W) 1,422 4.3 -13.8°
Drops below altitude 10° 09:11:02 10° 202° (SSW) 2,273 5.5 -12.8°
Sets 09:13:42 0° 191° (S) 3,191 6.4 -12.2°
